Regional Weather Roundup
Issued by NWS

Home | Current Version | Previous Version | Graphics & Text | Print | Product List | Glossary On
Versions: 1 2 3 4 5 6 7 8 9 10 11 12 13 14 15 16 17 18 19 20 21 22 23 24 25 26 27 28 29 30 31 32 33 34 35 36 37 38 39 40 41 42 43 44 45 46 47 48 49 50
000
ASUS43 KDMX 260406
RWRIA

WEATHER ROUNDUP FOR IOWA
NATIONAL WEATHER SERVICE DES MOINES IA
1100 PM CDT WED APR 25 2018

NOTE: "FAIR" INDICATES FEW OR NO CLOUDS BELOW 12,000 FEET WITH NO
SIGNIFICANT WEATHER AND/OR OBSTRUCTIONS TO VISIBILITY.

* - THESE STATIONS ARE NOT NWS STATIONS...THUS NOT UNDER NWS
QUALITY CONTROL.  THEY ALSO DO NOT REPORT WEATHER SUCH
AS PRECIPITATION OR FOG.

IAZ001>003-012>014-020>022-031>034-043>046-260500-
   NORTHWEST IOWA

CITY           SKY/WX    TMP DP  RH WIND       PRES   REMARKS
CARROLL *      MOCLDY    41  28  60 CALM      30.00F
CHEROKEE *     PTCLDY    43  32  66 CALM      29.99F
DENISON *      CLEAR     39  30  70 CALM      30.01F
LE MARS *      CLOUDY    45  34  65 CALM      29.99F
ORANGE CITY *  CLOUDY    50  30  46 CALM      29.99F
SHELDON *      CLOUDY    45  30  57 CALM      29.97F
SIOUX CITY     CLOUDY    45  34  65 W3        30.00F
SPENCER        CLOUDY    44  32  62 S6        29.99F
STORM LAKE *   CLOUDY    46  27  46 SE5       30.00F
$$

IAZ055>058-069>071-079>083-090>094-260500-
   SOUTHWEST IOWA

CITY           SKY/WX    TMP DP  RH WIND       PRES   REMARKS
ATLANTIC *     PTCLDY    45  36  70 SW5       30.01F
AUDUBON *      CLEAR     37  30  75 CALM      30.02S
CLARINDA *     PTCLDY    45  39  81 S6        30.05F
COUNCIL BLFS * CLEAR     48  34  57 S6        30.01F
CRESTON *      CLEAR     45  34  65 SW6       30.03S
HARLAN  *      CLEAR     43  30  61 CALM      30.04F
LAMONI         CLEAR     43  37  79 W9        30.01F
RED OAK *      CLEAR     43  36  75 S6        30.03S
SHENANDOAH *   CLEAR     41  39  93 SW5       30.04F
$$

IAZ047>049-059>061-072>074-084-260500-
   CENTRAL IOWA

CITY           SKY/WX    TMP DP  RH WIND       PRES   REMARKS
AMES           CLEAR     49  34  56 N3        30.00F
ANKENY *       CLEAR     50  32  50 N5        30.01F
BOONE *        CLEAR     46  34  61 NE7       29.99F
CHARITON *     CLEAR     48  28  46 W8        30.00F
DES MOINES     PTCLDY    54  31  41 NE6       30.00F
GRINNELL*      CLEAR     45  29  53 N3        30.00F
KNOXVILLE *    CLEAR     52  28  40 SW3       29.98F
MARSHALLTOWN   CLEAR     44  32  62 N6        29.99F
NEWTON *       CLEAR     50  28  43 NE6       29.99F
PELLA *        CLEAR     50  27  40 NE3       30.01F
PERRY *        FAIR      48  27  44 NE5       30.00F
$$

IAZ004>006-015-016-023>025-035-036-260500-
   NORTH CENTRAL IOWA

CITY           SKY/WX    TMP DP  RH WIND       PRES   REMARKS
ALGONA *       CLEAR     46  36  66 SE5       30.00F
CLARION *      CLEAR     43  36  75 NE6       30.00F
ESTHERVILLE    CLOUDY    42  37  82 SE8       29.98F
FORT DODGE *   CLEAR     44  35  70 E5        30.00F
MASON CITY     CLEAR     41  34  76 W5        30.01F
FOREST CITY *  FAIR      37  36  93 CALM      30.00F
WEBSTER CITY * CLEAR     45  34  65 CALM      29.98F
IOWA FALLS *   FAIR      43  35  73 NW3       30.02S
$$

IAZ007>011-017>019-026>030-037>042-050>054-066-260500-
   NORTHEAST IOWA

CITY           SKY/WX    TMP DP  RH WIND       PRES   REMARKS
CEDAR RAPIDS   FAIR      49  28  44 N6        29.98F
CHARLES CITY * FAIR      45  34  65 W5        30.00F
CLINTON *      FAIR      46  30  53 N5        29.99F
DECORAH *      CLOUDY    46  28  49 CALM      29.98F
DUBUQUE        FAIR      51  26  37 N3        29.99F
MONTICELLO *   FAIR      39  32  75 CALM      29.98F
OELWEIN *      FAIR      46  34  61 N5        29.99F
WATERLOO       FAIR      42  32  67 CALM      29.99F
$$

IAZ064-065-067-068-078-260500-
   EAST CENTRAL IOWA

CITY           SKY/WX    TMP DP  RH WIND       PRES   REMARKS
DAVENPORT      FAIR      50  28  42 NE5       30.00F
IOWA CITY      FAIR      47  31  53 CALM      30.00F
MT. PLEASANT * CLEAR     46  32  57 CALM      29.98F
MUSCATINE *    FAIR      48  30  49 CALM      29.99F
QUAD CITIES    FAIR      45  34  65 CALM      29.98F
$$

IAZ062-063-075>077-085>089-095>099-260500-
   SOUTHEAST IOWA

CITY           SKY/WX    TMP DP  RH WIND       PRES   REMARKS
BURLINGTON     CLEAR     47  34  60 SE3       29.98F
FAIRFIELD *    CLEAR     45  27  49 W5        29.98F
FORT MADISON * CLEAR     52  36  54 CALM      29.99F
KEOKUK *       CLEAR     48  37  66 SW3       29.98F
OSKALOOSA *    FAIR      46  25  43 CALM      29.99F
CENTERVILLE *  FAIR      46  30  53 CALM      30.01F
OTTUMWA        CLEAR     45  29  53 NW7       29.99F
WASHINGTON *   CLEAR     46  28  49 N3        29.99F
$$

ABBREVIATIONS USED IN REMARKS
   TC - TEMPERATURES IN CELSIUS
  WCI - WIND CHILL INDEX
   HX - HEAT INDEX
  VSB - VISIBILITY
$$





USA.gov is the U.S. government's official web portal to all federal, state and local government web resources and services.